TimeCST,TemperatureF,Dew PointF,Humidity,Sea Level PressureIn,VisibilityMPH,Wind Direction,Wind SpeedMPH,Gust SpeedMPH,PrecipitationIn,Events,Conditions,WindDirDegrees,DateUTC
12:53 AM,28.9,21.9,75,30.35,10.0,WNW,3.5,-,N/A,,Clear,290,2013-01-06 06:53:00
1:53 AM,27.0,21.9,81,30.37,10.0,Calm,Calm,-,N/A,,Clear,0,2013-01-06 07:53:00
2:53 AM,28.0,21.9,78,30.37,10.0,NW,3.5,-,N/A,,Clear,310,2013-01-06 08:53:00
3:53 AM,30.0,23.0,75,30.38,10.0,North,3.5,-,N/A,,Clear,350,2013-01-06 09:53:00
4:53 AM,28.0,21.9,78,30.38,10.0,WNW,3.5,-,N/A,,Clear,290,2013-01-06 10:53:00
5:53 AM,26.1,21.0,81,30.39,10.0,Calm,Calm,-,N/A,,Clear,0,2013-01-06 11:53:00
6:53 AM,23.0,19.0,85,30.42,9.0,Calm,Calm,-,N/A,,Clear,0,2013-01-06 12:53:00
7:53 AM,21.9,18.0,85,30.44,8.0,Calm,Calm,-,N/A,,Clear,0,2013-01-06 13:53:00
8:53 AM,28.9,24.1,82,30.45,10.0,Calm,Calm,-,N/A,,Clear,0,2013-01-06 14:53:00
9:53 AM,34.0,26.1,73,30.47,10.0,Calm,Calm,-,N/A,,Clear,0,2013-01-06 15:53:00
10:53 AM,41.0,24.1,51,30.47,10.0,North,5.8,-,N/A,,Clear,360,2013-01-06 16:53:00
11:53 AM,45.0,21.0,39,30.45,10.0,NNE,5.8,-,N/A,,Clear,30,2013-01-06 17:53:00
12:53 PM,46.9,21.9,37,30.41,10.0,West,4.6,-,N/A,,Clear,270,2013-01-06 18:53:00
1:53 PM,50.0,21.0,32,30.38,10.0,NNE,4.6,-,N/A,,Clear,30,2013-01-06 19:53:00
2:53 PM,51.1,19.9,29,30.37,10.0,Calm,Calm,-,N/A,,Clear,0,2013-01-06 20:53:00
3:53 PM,51.1,18.0,27,30.35,10.0,Calm,Calm,-,N/A,,Clear,0,2013-01-06 21:53:00
4:53 PM,52.0,18.0,26,30.35,10.0,Calm,Calm,-,N/A,,Clear,0,2013-01-06 22:53:00
5:53 PM,43.0,19.9,40,30.35,10.0,Calm,Calm,-,N/A,,Clear,0,2013-01-06 23:53:00
6:53 PM,35.1,19.9,54,30.37,10.0,Calm,Calm,-,N/A,,Clear,0,2013-01-07 00:53:00
7:53 PM,33.1,19.9,59,30.37,10.0,SSE,4.6,-,N/A,,Clear,150,2013-01-07 01:53:00
8:53 PM,33.1,19.9,59,30.36,10.0,SSE,5.8,-,N/A,,Clear,160,2013-01-07 02:53:00
9:53 PM,32.0,19.9,61,30.36,10.0,South,5.8,-,N/A,,Clear,170,2013-01-07 03:53:00
10:53 PM,34.0,19.9,56,30.35,10.0,South,4.6,-,N/A,,Clear,170,2013-01-07 04:53:00
11:53 PM,35.1,19.9,54,30.35,10.0,South,6.9,-,N/A,,Clear,170,2013-01-07 05:53:00